Location: Unspecified
(48.5670°N, 0.0000°E)
Time: 05:36:26
(UTC+00:00)

Altair - Pass Details

Date: 29 August 2019
Orbit: 1501 x 1683 km, 47.2° (Epoch: 21 September)

Event Time Altitude Azimuth Distance (km) Brightness Sun altitude
Exits shadow 00:30:45 34° 125° (SE) 2,450 8.3 -31.5°
Drops below altitude 10° 00:37:57 10° 78° (ENE) 3,805 9.8 -31.3°
Sets 00:41:20 0° 70° (ENE) 4,765 10.5 -31.2°
